When you browse on this site, cookies collect data to enhance your experience and personalize the content and advertising you see.
Visit our Privacy Policy to learn more. By continuing to use the site, you agree to this use of cookies and data.

Previsão horária em Abbotsford

Hoje, 24 Setembro, Quinta-feira

Tempo Temperatura Precipitação Vento Pressão Humidade
00:00 +14°C° 1.6 mm 2 m/s 746 mmHg 97%
01:00 +14°C° 1.6 mm 2 m/s 746 mmHg 96%
02:00 +13°C° 1.4 mm 3 m/s 746 mmHg 96%
03:00 +13°C° 1.4 mm 3 m/s 747 mmHg 96%
04:00 +13°C° 0 mm 3 m/s 747 mmHg 96%
05:00 +13°C° 1.6 mm 3 m/s 748 mmHg 95%
06:00 +13°C° 1.6 mm 3 m/s 748 mmHg 95%
07:00 +13°C° 1.6 mm 3 m/s 748 mmHg 95%
08:00 +13°C° 1.6 mm 3 m/s 748 mmHg 95%
09:00 +14°C° 1.6 mm 2 m/s 749 mmHg 95%
10:00 +14°C° 1.6 mm 2 m/s 749 mmHg 96%
11:00 +15°C° 1.2 mm 2 m/s 749 mmHg 94%
12:00 +15°C° 1.2 mm 2 m/s 750 mmHg 93%
13:00 +16°C° 1.2 mm 2 m/s 750 mmHg 92%
14:00 +16°C° 1.4 mm 2 m/s 750 mmHg 91%
15:00 +16°C° 1.4 mm 2 m/s 750 mmHg 90%
16:00 +16°C° 1.4 mm 2 m/s 750 mmHg 90%
17:00 +15°C° 1 mm 1 m/s 750 mmHg 91%
18:00 +15°C° 1 mm 1 m/s 750 mmHg 92%
19:00 +14°C° 1 mm 1 m/s 750 mmHg 94%
20:00 +14°C° 1.1 mm 1 m/s 750 mmHg 95%
21:00 +14°C° 1.1 mm 1 m/s 749 mmHg 96%
22:00 +14°C° 1.1 mm 1 m/s 749 mmHg 97%
23:00 +14°C° 0.5 mm 1 m/s 749 mmHg 96%

Amanhã, 25 Setembro, Sexta-feira

Tempo Temperatura Precipitação Vento Pressão Humidade
00:00 +13°C° 0.5 mm 1 m/s 748 mmHg 96%
01:00 +13°C° 0.5 mm 1 m/s 747 mmHg 96%
02:00 +13°C° 1.1 mm 1 m/s 746 mmHg 96%
03:00 +13°C° 1.1 mm 1 m/s 745 mmHg 96%
04:00 +13°C° 1.1 mm 2 m/s 745 mmHg 97%
05:00 +13°C° 3 mm 2 m/s 744 mmHg 97%
06:00 +13°C° 3 mm 2 m/s 744 mmHg 97%
07:00 +12°C° 3 mm 3 m/s 743 mmHg 97%
08:00 +12°C° 1.7 mm 3 m/s 743 mmHg 96%
09:00 +13°C° 1.7 mm 3 m/s 744 mmHg 96%
10:00 +13°C° 1.7 mm 3 m/s 744 mmHg 95%
11:00 +13°C° 1.1 mm 3 m/s 744 mmHg 92%
12:00 +14°C° 1.1 mm 4 m/s 744 mmHg 90%
13:00 +15°C° 1.1 mm 4 m/s 744 mmHg 87%
14:00 +15°C° 0.9 mm 4 m/s 745 mmHg 85%
15:00 +14°C° 0.9 mm 4 m/s 745 mmHg 83%
16:00 +14°C° 0.9 mm 3 m/s 746 mmHg 81%
17:00 +13°C° 0.4 mm 3 m/s 746 mmHg 83%
18:00 +12°C° 0.4 mm 3 m/s 747 mmHg 85%
19:00 +12°C° 0.4 mm 2 m/s 748 mmHg 88%
20:00 +10°C° 0.2 mm 2 m/s 749 mmHg 89%
21:00 +10°C° 0.2 mm 2 m/s 750 mmHg 91%
22:00 +10°C° 0.2 mm 2 m/s 751 mmHg 93%
23:00 +11°C° 0.2 mm 1 m/s 751 mmHg 93%

Depois de amanhã, 26 Setembro, Sábado

Tempo Temperatura Precipitação Vento Pressão Humidade
00:00 +11°C° 0.2 mm 1 m/s 752 mmHg 94%
01:00 +11°C° 0.2 mm 1 m/s 752 mmHg 94%
02:00 +11°C° 0.3 mm 1 m/s 753 mmHg 95%
03:00 +11°C° 0.3 mm 1 m/s 753 mmHg 95%
04:00 +11°C° 0.3 mm 1 m/s 753 mmHg 96%
05:00 +11°C° 0.2 mm 1 m/s 754 mmHg 96%
06:00 +11°C° 0.2 mm 1 m/s 754 mmHg 95%
07:00 +11°C° 0.2 mm 1 m/s 755 mmHg 95%
08:00 +12°C° 0.3 mm 1 m/s 755 mmHg 91%
09:00 +13°C° 0.3 mm 2 m/s 755 mmHg 87%
10:00 +14°C° 0.3 mm 2 m/s 755 mmHg 84%
11:00 +14°C° 0.7 mm 2 m/s 755 mmHg 84%
12:00 +14°C° 0.7 mm 2 m/s 755 mmHg 85%
13:00 +15°C° 0.7 mm 2 m/s 756 mmHg 85%
14:00 +15°C° 0.6 mm 2 m/s 756 mmHg 85%
15:00 +15°C° 0.6 mm 2 m/s 756 mmHg 85%
16:00 +15°C° 0.6 mm 2 m/s 756 mmHg 85%
17:00 +14°C° 0.1 mm 1 m/s 757 mmHg 86%
18:00 +13°C° 0.1 mm 1 m/s 758 mmHg 88%
19:00 +12°C° 0.1 mm 1 m/s 758 mmHg 90%
20:00 +11°C° 0 mm 1 m/s 759 mmHg 90%
21:00 +11°C° 0 mm 1 m/s 759 mmHg 91%
22:00 +10°C° 0 mm 1 m/s 760 mmHg 91%
23:00 +10°C° 0 mm 1 m/s 761 mmHg 92%

27 Setembro, Domingo

Tempo Temperatura Precipitação Vento Pressão Humidade
00:00 +10°C° 0 mm 1 m/s 761 mmHg 92%
01:00 +9°C° 0 mm 1 m/s 762 mmHg 92%
02:00 +9°C° 0 mm 1 m/s 762 mmHg 93%
03:00 +9°C° 0 mm 1 m/s 762 mmHg 93%
04:00 +9°C° 0 mm 1 m/s 762 mmHg 93%
05:00 +10°C° 0 mm 1 m/s 763 mmHg 92%
06:00 +10°C° 0 mm 1 m/s 763 mmHg 90%
07:00 +11°C° 0 mm 1 m/s 763 mmHg 89%
08:00 +11°C° 0 mm 0 m/s 763 mmHg 86%
09:00 +12°C° 0 mm 0 m/s 764 mmHg 83%
10:00 +13°C° 0 mm 0 m/s 764 mmHg 80%
11:00 +14°C° 0 mm 0 m/s 764 mmHg 78%
12:00 +14°C° 0 mm 0 m/s 764 mmHg 76%
13:00 +16°C° 0 mm 1 m/s 764 mmHg 73%
14:00 +15°C° 0 mm 0 m/s 764 mmHg 72%
15:00 +15°C° 0 mm 0 m/s 763 mmHg 71%
16:00 +15°C° 0 mm 0 m/s 763 mmHg 70%
17:00 +14°C° 0 mm 0 m/s 763 mmHg 74%
18:00 +13°C° 0 mm 0 m/s 763 mmHg 78%
19:00 +13°C° 0 mm 1 m/s 763 mmHg 82%
20:00 +13°C° 0 mm 1 m/s 763 mmHg 81%
21:00 +13°C° 0 mm 1 m/s 764 mmHg 80%
22:00 +12°C° 0 mm 1 m/s 764 mmHg 79%
23:00 +12°C° 0 mm 1 m/s 763 mmHg 80%

28 Setembro, Segunda-feira

Tempo Temperatura Precipitação Vento Pressão Humidade
00:00 +12°C° 0 mm 1 m/s 763 mmHg 80%
01:00 +12°C° 0 mm 1 m/s 763 mmHg 80%
02:00 +12°C° 0 mm 1 m/s 763 mmHg 81%
03:00 +12°C° 0 mm 1 m/s 762 mmHg 81%
04:00 +12°C° 0 mm 1 m/s 762 mmHg 81%
05:00 +12°C° 0 mm 1 m/s 762 mmHg 81%
06:00 +13°C° 0 mm 1 m/s 762 mmHg 81%
07:00 +13°C° 0 mm 1 m/s 762 mmHg 80%
08:00 +15°C° 0 mm 1 m/s 762 mmHg 73%
09:00 +18°C° 0 mm 1 m/s 761 mmHg 67%
10:00 +21°C° 0 mm 1 m/s 761 mmHg 60%
11:00 +22°C° 0 mm 1 m/s 761 mmHg 58%
12:00 +23°C° 0 mm 1 m/s 760 mmHg 57%
13:00 +24°C° 0 mm 1 m/s 760 mmHg 56%
14:00 +23°C° 0 mm 1 m/s 760 mmHg 59%
15:00 +23°C° 0 mm 1 m/s 759 mmHg 62%
16:00 +22°C° 0 mm 1 m/s 759 mmHg 65%
17:00 +20°C° 0 mm 1 m/s 759 mmHg 74%
18:00 +18°C° 0 mm 1 m/s 759 mmHg 82%
19:00 +14°C° 0 mm 0 m/s 759 mmHg 91%
20:00 +15°C° 0 mm 1 m/s 759 mmHg 91%
21:00 +15°C° 0 mm 1 m/s 760 mmHg 91%
22:00 +15°C° 0 mm 1 m/s 760 mmHg 91%
23:00 +15°C° 0 mm 1 m/s 760 mmHg 90%

29 Setembro, Terça-feira

Tempo Temperatura Precipitação Vento Pressão Humidade
00:00 +14°C° 0 mm 1 m/s 759 mmHg 90%
01:00 +14°C° 0 mm 1 m/s 759 mmHg 90%
02:00 +14°C° 0 mm 1 m/s 759 mmHg 90%
03:00 +14°C° 0 mm 1 m/s 759 mmHg 89%
04:00 +14°C° 0 mm 1 m/s 759 mmHg 89%
05:00 +14°C° 0 mm 1 m/s 759 mmHg 88%
06:00 +15°C° 0 mm 1 m/s 759 mmHg 87%
07:00 +15°C° 0 mm 1 m/s 759 mmHg 86%
08:00 +19°C° 0 mm 1 m/s 758 mmHg 77%
09:00 +21°C° 0 mm 1 m/s 758 mmHg 68%
10:00 +24°C° 0 mm 1 m/s 758 mmHg 60%
11:00 +25°C° 0 mm 1 m/s 758 mmHg 57%
12:00 +27°C° 0 mm 1 m/s 757 mmHg 54%
13:00 +28°C° 0 mm 1 m/s 757 mmHg 51%
14:00 +28°C° 0 mm 1 m/s 757 mmHg 55%
15:00 +27°C° 0 mm 1 m/s 756 mmHg 60%
16:00 +27°C° 0 mm 1 m/s 756 mmHg 64%
17:00 +25°C° 0 mm 1 m/s 756 mmHg 69%
18:00 +23°C° 0 mm 1 m/s 756 mmHg 74%
19:00 +21°C° 0 mm 1 m/s 757 mmHg 79%
20:00 +20°C° 0 mm 1 m/s 757 mmHg 77%
21:00 +19°C° 0 mm 2 m/s 757 mmHg 75%
22:00 +19°C° 0 mm 2 m/s 757 mmHg 74%
23:00 +18°C° 0 mm 2 m/s 757 mmHg 73%
Mostrar mais